Location: Béaulencourt
(50.0796°N, 2.8795°E)
Time: 00:14:43
(UTC+00:00)

Cosmos 2082 Rocket - Pass Details

Date: 20 January 2026
Orbit: 831 x 853 km, 71.0° (Epoch: 18 February)

Event Time Altitude Azimuth Distance (km) Brightness Sun altitude
Exits shadow 05:25:58 38° 299° (WNW) 1,271 2.6 -20.6°
Maximum altitude 05:27:43 52° 249° (WSW) 1,048 2.3 -20.3°
Drops below altitude 10° 05:33:12 10° 174° (S) 2,471 4.8 -19.4°
Sets 05:35:42 0° 170° (S) 3,405 5.6 -19.0°
